Regional Weather Roundup
Issued by NWS

Home | Current Version | Previous Version | Text Only | Print | Product List | Glossary On
Versions: 1 2 3 4 5 6 7 8 9 10 11 12 13 14 15 16 17 18 19 20 21 22 23 24 25 26 27 28 29 30 31 32 33 34 35 36 37 38 39 40 41 42 43 44 45 46 47 48 49 50
454
ASUS42 KTBW 231016
RWRFL
FLORIDA REGIONAL WEATHER ROUNDUP
NATIONAL WEATHER SERVICE TAMPA BAY RUSKIN FL
500 AM EST THU FEB 23 2017

NOTE: "FAIR" INDICATES FEW OR NO CLOUDS BELOW 12,000 FEET WITH NO
SIGNIFICANT WEATHER AND/OR OBSTRUCTIONS TO VISIBILITY.

FLZ001>010-012>015-112-114-115-231100-
PANHANDLE FLORIDA

CITY           SKY/WX    TMP DP  RH WIND       PRES   REMARKS
PENSACOLA      CLEAR     60  58  92 N5        29.79R
PENSACOLA NAS  CLEAR     59  57  93 NW5       29.78R
MILTON NAS     LGT RAIN  57  57 100 N3        29.80
CRESTVIEW      CLOUDY    60  59  96 E3        29.81R
DUKE FIELD     CLOUDY    59  59 100 NE7       29.78R
VALPARAISO     MOCLDY    60  59  95 NE10      29.78R
MARY ESTHER    PTCLDY    60  59  96 NE8       29.77R
TRI COUNTY     CLOUDY    63  61  93 N3        29.80R
PANAMA CITY    FAIR      61  59  93 N5        29.76S
TYNDALL AFB    PTCLDY    61  60  96 N6        29.76S
APALACHICOLA   CLEAR     61  61 100 NE8       29.74R

STATION/POSITION SKY/WX   TEMP    WIND        PRES    WAVE   SWELL
                          AIR SEA DIR/SP/G            HT/PER HT/PER
                          (F)     (DEG/KT/KT) (MB)    (FT/S) (FT/S)
30.1N   87.6W              66 68   30/ 12/ 14 1008.4R   2/ 7   2/ 7
28.8N   86.0W              69 71              1006.2    5/ 5   2/ 8
PANAMA CITY BEAC           61      10/  6/  8 1008.2R
TOWER C                    64      50/ 18/ 20 1006.9R
28.5N   84.5W              67 69   50/ 19/ 23 1004.3F   4/ 5   2/ 8

$$
FLZ011-016>038-118-127-128-134-139-239-231100-
NORTH FLORIDA

CITY           SKY/WX    TMP DP  RH WIND       PRES   REMARKS
MARIANNA       CLEAR     59  59 100 NW6       29.78R
TALLAHASSEE    CLEAR     59  59 100 NW3       29.74S
PERRY          CLOUDY    64  61  93 N3        29.73S
CROSS CITY     CLOUDY    61  61 100 N6        29.70S
LAKE CITY      CLOUDY    63  63 100 N8        29.72R
GAINESVILLE    CLOUDY    63  62  97 N6        29.68S
WILLISTON      MOCLDY    64  63  94 NW5       29.68R
PALATKA        CLOUDY    64  64 100 NE7       29.66S
MAYPORT NAS    PTCLDY    66  63  90 NE13      29.69R
JACKSONVILLE   MOCLDY    65  63  93 NE10      29.70R
JAX NAS        MOCLDY    67  63  87 NE12      29.69R
FERNANDINA BEA FAIR      68  64  88 NE8       29.70R
ST AUGUSTINE   MOCLDY    66  64  94 NE16      29.67S

STATION/POSITION SKY/WX   TEMP    WIND        PRES    WAVE   SWELL
                          AIR SEA DIR/SP/G            HT/PER HT/PER
                          (F)     (DEG/KT/KT) (MB)    (FT/S) (FT/S)
SHELL POINT      NOT AVBL
KEATON BEACH               63      20/  6/  8 1005.8S
CEDAR KEY                  62      10/  8/ 11 1005.0S
FERNANDINA                 67 67   20/  4/  6 1006.6R
30.7N   81.3W                 63                N/A     7/ 8
MAYPORT                    67 66   60/ 12/ 13 1005.7R
31.4N   80.9W              65 63   50/ 10/ 12 1006.4    7/ 8   7/ 8
ST AUGUSTINE               68 67   30/ 16/ 18 1004.9R

$$
FLZ040-043>046-052-053-057-058-063-144-231100-
INTERIOR CENTRAL FLORIDA

CITY           SKY/WX    TMP DP  RH WIND       PRES   REMARKS
OCALA          CLOUDY    63  59  88 N10       29.65S
THE VILLAGES     N/A     64  64 100 SE6       29.54R
LEESBURG       CLOUDY    66  63  90 N12       29.63R
SANFORD        CLOUDY    66  63  90 E3        29.59S
ORLANDO EXEC   CLOUDY    64  63  96 SE7       29.60R
ORLANDO INTL   CLOUDY    62  61  96 S5        29.61R
KISSIMMEE      CLOUDY    62  61  96 SW7       29.61R
WINTER HAVEN   CLOUDY    61  59  93 W7        29.62R
LAKELAND       CLOUDY    59  59 100 NW9       29.62R FOG
BARTOW         CLOUDY    59 N/A N/A CALM      29.62R
OKEECHOBEE     FOG       59  59 100 CALM      29.62R VSB 1/2

$$
FLZ041-047-054-059-064-141-147-231100-
EAST CENTRAL FLORIDA

CITY           SKY/WX    TMP DP  RH WIND       PRES   REMARKS
DAYTONA BEACH  CLOUDY    68  64  87 NE22      29.59S
DELAND         CLOUDY    68  63  83 E9        29.60S
JFK SPACE CTR  LGT RAIN  64  64 100 W6        29.56F FOG
CAPE CANAVERAL CLOUDY    63  61  94 SW8       29.57S
PATRICK AFB    PTCLDY    62  62  99 W8        29.58F
MELBOURNE      FOG       60  60 100 W3        29.59S VSB 1/4
VERO BEACH     FOG       57  57 100 W5        29.60R VSB 1/4
FT PIERCE      CLEAR     58  58 100 CALM      29.60R
STUART         FOG       63  63 100 W5        29.61F VSB 3/4

STATION/POSITION SKY/WX   TEMP    WIND        PRES    WAVE   SWELL
                          AIR SEA DIR/SP/G            HT/PER HT/PER
                          (F)     (DEG/KT/KT) (MB)    (FT/S) (FT/S)
TRIDENT PIER               62 71  250/  8/  9 1002.8F
28.4N   80.5W                 71                N/A     5/ 8   2/11
27.5N   80.2W                 72                N/A     4/ 8   2/11

$$
FLZ050-056-061-142-242-148-248-149-249-151-251-155-255-
160-260-231100-
WEST CENTRAL FLORIDA

CITY           SKY/WX    TMP DP  RH WIND       PRES   REMARKS
CRYSTAL RIVER  CLOUDY    63  61  94 N6        29.65R
INVERNESS      CLOUDY    63  63 100 N7        29.65R
BROOKSVILLE    LGT RAIN  63  62  97 N9        29.64R
CLEARWATER AIR CLOUDY    59  59 100 N5        29.63S
ST PETE CLEARW CLOUDY    62  60  93 N6        29.64R
TAMPA INTL     CLOUDY    61  59  93 N6        29.64R
TAMPA EXEC     DRIZZLE   63  59  88 NW6       29.64R
PLANT CITY     CLOUDY    61  61 100 NW6       29.64R
MACDILL AFB    DRIZZLE   61  61 100 N7        29.63S
PETER O KNIGHT LGT RAIN  63  63 100 CALM      29.64R
ST PETERSBURG    N/A    N/A N/A N/A MISG        N/A
SARASOTA       CLOUDY    58  56  93 CALM      29.62R
VENICE         FAIR      59  59 100 NE3       29.64R FOG

STATION/POSITION SKY/WX   TEMP    WIND        PRES    WAVE   SWELL
                          AIR SEA DIR/SP/G            HT/PER HT/PER
                          (F)     (DEG/KT/KT) (MB)    (FT/S) (FT/S)
27.3N   84.2W                 71                N/A     4/ 8
CLEARWATER BEACH           66     350/ 15/ 17 1003.6R
MIDDLE TAMPA BAY           62     340/  9/  9 1003.5R
VENICE                     63 70  290/  5/  6 1002.9R

$$
FLZ066-069-070-075>078-162-262-165-265-231100-
SOUTHWEST FLORIDA AND KEYS

CITY           SKY/WX    TMP DP  RH WIND       PRES   REMARKS
PUNTA GORDA    MOCLDY    58  57  97 CALM      29.63S
FT MYERS       PTCLDY    60  59  96 CALM      29.61S
SOUTHWEST INTL PTCLDY    60  57  89 CALM      29.62R
NAPLES         PTCLDY    68  61  78 W9        29.61F
MARCO ISLAND   CLOUDY    66  61  82 W9        29.62S
MARATHON       CLEAR     70  60  70 W8        29.65S
KEY WEST NAS   CLEAR     67  59  75 W12       29.66S
KEY WEST INTL  CLEAR     70  59  68 W8        29.67R

STATION/POSITION SKY/WX   TEMP    WIND        PRES    WAVE   SWELL
                          AIR SEA DIR/SP/G            HT/PER HT/PER
                          (F)     (DEG/KT/KT) (MB)    (FT/S) (FT/S)
NAPLES                        72              1002.5F
26.0N   85.6W              71 74  350/ 14/ 17 1005.1R   6/ 8   5/ 8
DRY TORTUGAS               71     270/  9/ 10 1004.4R
SAND KEY                   71                 1004.9S
LONG KEY                   71 72  290/ 11/ 13 1004.1F
MOLASSES REEF              70 74  290/ 12/ 13 1003.9

$$
FLZ067-068-071>074-168-172>174-231100-
SOUTHEAST FLORIDA

CITY           SKY/WX    TMP DP  RH WIND       PRES   REMARKS
W PALM BEACH   CLOUDY    59  59 100 W8        29.61S
FT LAUDER-EXEC PTCLDY    64  60  87 SW5       29.62S
FT LAUDERDALE  CLOUDY    64  62  93 W7        29.62R
POMPANO BEACH  MOCLDY    64  62  93 SW6       29.62R
PEMBROKE PINES CLOUDY    63  61  93 SW3       29.64R
OPA LOCKA      CLOUDY    64  60  87 MISG      29.63S
MIAMI          CLOUDY    64  60  86 SW3       29.63S
WEST KENDALL   PTCLDY    60  58  92 CALM      29.64R
HOMESTEAD      CLEAR     59  59 100 CALM      29.63S

STATION/POSITION SKY/WX   TEMP    WIND        PRES    WAVE   SWELL
                          AIR SEA DIR/SP/G            HT/PER HT/PER
                          (F)     (DEG/KT/KT) (MB)    (FT/S) (FT/S)
PORT EVERGLADES            65     260/  5/  9 1002.8R
VIRGINIA KEY               66     270/  6/  9 1003.7R
LAKE WORTH                        260/  8/ 11   N/A
FOWEY ROCKS                68 74  270/ 12/ 14 1004.0R

$$





USA.gov is the U.S. government's official web portal to all federal, state and local government web resources and services.